Temperature
17 17 17 17 17 17 17 17 17 17 17 17 17 17 17 17 17 17 17 17 17 17 17 17 17 17 16 16 16 16 16 16 16 16 16 16 16 16 16 16 16 16 16
17 17 17 17 17 17 17 17 17 17 17 17 17 17 17 17 17 17 17 17 17 17 17 17 17 16 16 16 16 16 16 16 16 16 16 16 16 16 16 16 16 16 16
17 17 17 17 17 17 17 17 17 16 17 17 17 17 17 17 17 16 16 16 16 17 17 17 16 16 16 16 16 16 16 16 16 16 16 16 16 16 16 16 16 16 16
17 17 17 17 17 17 17 17 16 17 17 17 17 17 17 17 17 16 17 16 16 16 16 16 16 16 16 16 16 16 16 16 16 16 16 16 16 16 16 16 15 15 15
17 17 17 17 17 17 17 17 16 16 16 17 17 17 17 17 17 17 16 16 16 16 16 16 16 16 16 16 16 16 16 16 16 16 16 16 16 16 16 16 15 15 15
17 17 17 17 16 16 16 16 16 16 16 16 17 17 17 17 17 17 17 17 16 16 16 16 16 16 16 16 16 16 16 16 16 15 15 15 15 15 16 15 15 15 15
17 17 16 17 16 16 16 16 16 16 16 16 17 17 17 17 16 16 17 17 16 16 16 16 16 16 16 16 16 16 16 15 15 15 15 15 15 15 15 15 15 15 15
17 16 16 16 16 16 16 16 16 16 16 16 17 17 18 17 16 17 16 16 16 16 16 16 16 16 16 15 15 15 15 15 15 15 15 15 15 15 15 15 15 15 15
16 16 16 16 16 16 16 16 16 16 16 16 16 17 18 18 18 17 16 16 16 16 16 16 16 15 15 15 15 15 15 15 15 15 15 15 15 15 15 15 15 15 15
16 16 16 16 16 16 16 16 16 16 16 16 16 16 17 17 18 18 17 16 16 16 16 16 16 15 15 15 15 15 15 15 15 15 15 15 15 15 15 15 15 15 15
16 16 16 16 16 16 16 16 15 16 16 16 16 16 16 16 17 18 18 17 16 16 16 15 15 15 15 15 14 14 15 15 14 14 14 14 14 14 14 14 14 14 15
16 16 16 16 16 16 15 15 15 15 16 16 16 16 16 17 17 18 18 17 17 16 15 15 15 15 15 15 15 15 14 14 14 14 14 14 14 14 14 14 14 14 14
16 16 16 16 15 15 15 15 15 15 15 15 15 16 16 16 16 17 17 17 17 16 15 15 15 15 15 15 14 14 14 14 14 14 14 14 14 14 14 14 14 14 14
16 16 15 16 15 15 15 15 15 15 15 15 15 15 15 16 16 16 16 17 17 17 16 16 15 15 15 14 14 14 14 14 14 14 14 14 14 14 14 14 14 14 14
16 16 15 15 15 15 15 15 15 15 15 15 15 15 15 15 15 15 15 16 17 17 17 16 15 15 14 14 14 14 14 14 14 14 14 14 14 14 14 14 14 14 14
16 16 16 15 15 15 15 15 15 15 15 15 15 15 15 15 15 15 15 15 15 16 17 17 15 15 14 14 14 14 14 14 14 14 14 14 14 14 14 14 13 13 13
16 16 16 15 15 15 15 15 15 15 15 15 14 14 14 14 15 15 14 15 15 15 16 16 15 14 14 14 14 14 14 14 14 14 14 14 14 14 14 13 13 13 13
16 16 16 15 15 15 15 15 14 14 14 14 14 14 14 14 14 14 14 14 14 14 14 15 15 14 14 14 13 14 14 14 14 14 14 14 14 13 13 13 13 13 13
16 15 15 15 15 15 15 15 14 14 14 14 14 14 14 14 14 14 14 14 14 14 14 14 14 14 14 14 13 13 14 13 14 14 14 13 13 13 13 13 13 13 13
16 15 15 15 15 15 15 15 14 14 14 14 14 14 14 14 14 14 14 14 14 14 14 14 14 14 14 14 13 13 14 14 13 14 13 13 13 13 13 13 13 13 13
16 15 15 15 15 15 15 15 15 14 14 14 14 14 14 14 14 14 14 14 14 13 14 14 14 14 14 14 14 14 14 14 14 13 13 13 13 13 13 13 13 13 13
15 15 15 15 15 15 15 15 15 14 14 14 14 14 14 15 14 14 14 14 14 13 13 14 14 14 13 13 13 13 13 13 13 14 13 13 13 13 13 13 13 13 13
16 16 15 15 15 15 15 15 15 14 14 14 14 14 14 14 14 14 14 14 14 14 14 13 13 13 13 13 13 12 12 12 13 13 12 13 13 13 13 13 13 12 12
16 16 16 15 15 15 15 15 15 15 14 14 14 14 14 14 14 14 13 13 13 13 14 13 13 13 13 12 12 12 12 12 12 12 12 12 12 13 13 13 12 12 12
16 16 16 16 15 15 15 15 15 14 14 14 14 14 14 14 14 14 14 13 13 13 13 13 13 13 13 12 12 12 11 11 12 13 12 12 12 12 12 12 12 12 12
16 16 15 15 15 15 15 15 15 14 14 14 14 14 14 14 14 14 14 13 13 13 13 12 12 12 12 12 12 12 11 11 12 12 12 12 12 12 12 12 12 12 12
Wind_Speed
6 6 5 5 5 6 6 4 3 4 3 3 3 3 3 3 3 3 8 8 6 6 6 6 6 6 6 6 6 6 6 6 6 7 7 7 7 7 7 7 7 7 7
6 6 6 5 5 4 4 4 4 3 3 3 3 3 2 3 4 3 5 8 8 6 5 5 6 6 7 7 7 7 7 6 6 6 7 7 7 7 8 8 8 7 7
7 6 6 6 5 5 5 4 4 4 3 3 3 3 3 2 3 3 3 4 7 9 7 6 5 7 7 7 8 8 8 8 8 8 8 8 8 8 8 8 9 9 8
8 6 5 5 6 5 5 4 4 3 3 2 2 2 2 3 3 3 4 3 2 5 8 7 6 6 7 7 8 8 9 9 10 10 9 10 10 10 10 10 10 10 10
8 7 5 5 7 5 4 4 4 3 3 2 3 3 2 2 2 2 3 3 3 2 4 8 7 5 6 6 7 8 9 10 10 10 11 11 11 11 11 11 11 11 12
8 7 6 6 7 5 5 4 4 2 2 3 2 2 2 3 2 2 3 4 4 4 3 3 6 7 6 5 5 5 7 8 9 10 10 11 11 11 12 12 12 12 12
9 8 6 7 6 6 5 6 5 5 4 3 3 4 3 3 3 2 2 2 3 3 2 3 3 3 6 7 5 4 4 5 6 8 9 9 10 11 12 13 13 13 14
9 9 7 6 6 5 6 6 5 4 3 4 4 4 4 4 4 3 3 3 2 3 3 4 3 3 2 3 5 4 2 2 3 4 5 7 8 9 11 12 13 13 14
9 7 8 7 6 6 6 6 6 6 4 5 3 3 3 2 4 3 2 2 2 2 3 4 4 4 3 2 4 5 3 2 2 2 3 4 5 7 9 11 12 13 15
9 9 9 8 7 6 5 6 5 5 5 5 4 2 2 2 2 3 4 4 3 3 2 2 3 4 3 3 4 6 5 4 3 2 1 3 4 5 6 7 9 11 13
9 9 9 8 7 6 5 5 5 5 5 5 4 4 3 2 4 3 3 4 4 4 3 3 2 3 3 3 3 5 5 3 2 2 1 0 2 4 5 7 8 9 11
8 9 9 8 7 6 6 6 6 6 4 3 4 4 4 4 4 4 3 4 4 3 3 2 3 3 3 3 2 6 4 3 2 1 1 2 3 4 5 6 8 9 9
8 9 9 8 7 6 6 6 6 5 6 5 5 4 4 4 3 4 4 3 3 3 3 4 4 4 4 3 3 5 5 4 3 2 2 3 4 5 6 6 7 8 9
8 10 10 9 8 8 7 6 6 6 5 5 5 3 4 4 3 4 4 4 4 4 5 4 3 4 3 4 3 5 5 6 4 4 4 5 6 6 7 8 8 9 10
9 11 11 10 9 8 7 7 5 6 6 6 6 6 4 3 3 3 3 4 5 4 4 5 4 4 4 4 3 6 5 6 6 7 7 8 8 9 9 9 10 11 11
10 11 11 10 9 9 8 8 7 6 6 5 4 4 4 4 3 3 3 3 4 5 4 1 3 2 2 4 5 6 8 6 11 11 10 10 10 11 11 11 12 12 13
11 11 11 11 10 10 9 8 7 7 7 7 6 6 6 4 4 4 4 4 4 4 5 3 3 3 4 6 4 6 8 9 10 13 12 12 13 13 14 14 14 14 14
12 12 12 11 11 10 10 10 9 9 8 8 8 7 7 6 5 5 4 5 4 4 5 5 4 4 5 6 6 8 9 10 10 9 12 14 15 16 16 16 16 17 17
12 12 12 12 11 11 11 10 9 9 9 9 8 8 8 7 7 6 6 6 5 5 5 6 6 5 6 6 7 8 10 8 12 11 13 17 18 18 18 19 19 19 19
13 13 13 12 11 11 11 11 10 10 9 9 9 9 9 9 9 8 7 7 6 6 6 7 7 7 6 6 7 8 8 7 8 10 10 11 14 18 21 22 22 21 21
14 13 13 12 12 11 11 12 11 11 10 10 10 10 10 8 6 7 7 7 7 8 8 8 8 8 7 6 7 7 8 9 9 9 9 10 10 12 13 19 24 23 22
14 13 14 13 13 11 10 10 11 11 11 11 10 10 10 10 10 10 9 8 8 9 9 9 9 8 8 9 8 8 9 10 10 7 8 10 10 11 12 15 12 13 18
14 14 14 14 13 11 12 13 13 11 11 10 10 10 9 9 11 11 12 13 13 13 12 12 12 11 11 10 9 11 10 11 12 11 11 13 12 12 13 14 11 13 17
14 14 14 14 13 12 14 15 13 13 12 11 11 11 11 10 10 10 11 11 12 12 13 13 12 12 12 10 9 11 12 13 14 12 11 13 13 12 12 13 13 16 19
14 13 13 13 13 12 15 15 14 12 11 13 12 12 12 12 7 7 10 11 12 11 11 12 12 12 12 11 10 9 11 12 13 12 10 12 13 13 12 13 13 15 19
13 13 13 13 13 12 14 16 16 11 12 11 11 11 10 11 7 9 10 11 12 10 9 8 9 12 13 14 14 12 12 12 13 12 10 9 12 12 13 12 11 11 13
Wind_Direction
165 153 149 154 156 147 154 149 144 133 136 134 130 128 131 105 111 124 125 145 161 165 162 161 167 173 175 175 177 182 184 182 181 179 179 179 179 179 177 177 174 174 173
162 163 162 162 156 157 145 154 148 151 156 128 131 127 143 129 125 146 133 149 166 175 176 175 179 185 186 189 192 194 192 193 193 194 194 196 195 194 192 190 189 188 187
166 172 168 170 160 152 145 160 148 156 168 156 139 132 141 135 129 143 147 151 164 175 181 185 190 195 197 200 203 201 200 202 206 208 207 207 207 208 206 205 202 201 201
174 180 177 170 163 167 164 159 173 169 163 165 153 152 142 152 156 170 167 160 165 171 169 176 195 201 205 207 207 208 209 211 215 219 219 218 216 216 217 216 214 213 214
182 189 181 163 173 176 179 185 164 186 175 183 176 170 179 167 167 176 164 163 163 188 174 160 180 197 205 208 209 212 214 216 219 223 226 226 224 222 222 223 223 223 224
188 191 182 173 184 182 183 182 159 180 195 205 208 167 181 166 178 157 187 166 175 188 186 162 175 175 180 189 196 208 215 218 219 223 227 226 226 226 226 226 227 229 229
190 192 187 174 192 186 186 183 184 180 197 196 196 182 174 170 167 173 192 198 177 177 164 172 193 179 172 171 177 193 211 219 220 226 229 228 230 230 231 229 230 232 234
191 192 190 185 189 180 183 185 198 208 188 201 220 201 189 174 182 172 176 187 184 175 172 169 158 183 228 166 142 171 202 213 211 214 222 227 229 231 234 232 231 233 236
189 194 188 191 184 191 183 191 194 209 201 192 223 236 231 198 161 159 175 179 181 182 182 163 160 155 177 158 142 128 137 138 160 191 210 221 231 237 240 240 239 239 241
186 187 187 185 189 191 176 194 195 204 208 200 188 235 307 358 246 179 181 174 172 184 178 182 159 159 165 143 117 107 115 109 109 126 195 236 242 243 246 247 248 248 249
185 186 183 180 185 191 187 195 184 210 206 212 202 196 197 204 247 252 199 181 182 176 178 189 190 179 164 172 173 126 130 125 118 118 113 297 271 262 256 252 254 257 256
182 185 183 181 187 184 181 189 193 196 213 208 224 215 215 220 227 233 229 215 200 177 187 199 210 196 199 201 153 121 148 159 180 215 255 281 281 278 274 268 266 266 265
181 181 183 181 181 178 183 187 192 199 196 194 211 220 229 240 245 249 252 231 216 192 193 213 211 214 216 210 166 154 178 181 198 231 266 282 285 282 277 272 271 271 269
181 175 179 179 179 181 184 183 192 190 190 197 205 210 220 221 226 236 248 247 233 219 209 210 204 216 230 233 160 206 202 185 215 243 261 273 279 279 276 273 271 270 268
176 176 180 180 181 181 183 189 193 190 184 194 189 189 211 197 218 228 241 256 262 254 225 190 221 201 230 238 197 241 248 198 223 244 255 265 273 275 275 274 273 272 272
176 176 181 181 181 182 185 194 189 184 186 191 197 189 206 206 202 215 226 238 256 270 272 212 221 231 261 265 206 248 260 229 233 239 250 259 265 270 270 270 271 270 270
177 180 182 183 184 185 187 193 199 183 193 191 193 192 203 215 214 212 216 227 237 250 258 250 234 225 240 266 259 261 261 259 252 220 234 249 260 265 266 266 267 268 268
182 185 186 187 189 188 189 194 199 195 198 199 201 201 204 201 210 231 226 231 237 252 258 263 258 244 233 246 256 265 269 267 274 232 225 243 255 260 262 264 265 266 267
186 187 189 192 193 192 193 198 202 203 205 206 206 207 209 209 214 219 228 235 234 233 246 257 259 261 258 254 261 262 265 265 271 260 232 235 243 250 256 259 261 262 263
189 190 192 196 197 198 199 201 204 206 209 211 212 215 217 217 220 223 226 234 243 247 242 252 259 258 256 255 258 269 271 260 268 278 276 264 246 240 246 249 252 254 257
194 193 195 197 201 204 206 204 205 207 210 214 216 220 224 226 237 238 244 234 234 243 249 251 258 263 264 269 270 277 281 284 275 273 276 274 266 261 254 243 241 245 249
196 194 197 199 203 210 186 191 213 212 213 218 220 223 224 218 220 226 250 261 265 254 258 265 267 271 275 275 280 282 284 284 285 283 284 283 282 279 275 271 259 238 241
196 197 200 203 208 205 172 187 210 224 221 222 224 226 232 223 211 228 223 226 240 246 252 260 268 272 277 278 281 277 275 280 284 290 290 283 282 279 278 276 255 246 248
198 200 202 204 208 202 179 190 198 220 231 228 227 228 233 239 230 230 239 238 240 238 234 238 252 263 271 281 276 273 281 279 273 268 265 275 282 282 283 282 264 244 246
200 201 204 206 209 204 184 190 194 216 225 230 231 230 232 236 217 211 240 248 252 254 243 235 250 265 280 279 272 272 272 275 279 281 272 273 282 285 285 282 274 245 239
202 203 206 208 211 212 189 188 196 218 224 227 226 229 227 234 215 199 233 247 253 258 264 250 240 248 254 252 238 242 261 270 277 282 283 279 282 287 286 282 282 280 264
Height
1562 1564 1565 1567 1569 1570 1572 1573 1574 1575 1576 1577 1579 1580 1581 1581 1582 1583 1582 1582 1583 1584 1584 1585 1586 1587 1588 1588 1589 1590 1591 1592 1592 1593 1594 1595 1596 1596 1597 1598 1598 1599 1599
1562 1563 1565 1566 1569 1570 1572 1573 1574 1575 1577 1578 1579 1579 1581 1582 1582 1583 1584 1583 1583 1584 1585 1585 1586 1587 1588 1588 1589 1590 1591 1591 1592 1593 1594 1595 1595 1596 1597 1598 1598 1599 1599
1561 1563 1565 1566 1568 1569 1570 1572 1574 1575 1577 1578 1579 1579 1580 1581 1582 1582 1583 1584 1584 1584 1584 1585 1586 1587 1587 1588 1589 1590 1590 1591 1592 1592 1593 1594 1595 1595 1596 1597 1598 1598 1599
1560 1562 1564 1566 1567 1569 1570 1572 1574 1576 1577 1578 1579 1580 1580 1580 1581 1582 1583 1584 1584 1585 1584 1585 1586 1586 1587 1587 1588 1589 1589 1590 1591 1592 1592 1593 1594 1594 1595 1596 1597 1597 1598
1559 1562 1563 1565 1566 1568 1570 1572 1573 1575 1576 1577 1578 1579 1580 1580 1581 1582 1583 1583 1584 1584 1585 1584 1585 1586 1586 1587 1587 1588 1588 1589 1590 1590 1591 1591 1592 1593 1593 1594 1595 1596 1597
1558 1560 1562 1563 1565 1567 1569 1570 1571 1573 1575 1576 1578 1579 1579 1580 1580 1581 1582 1583 1583 1584 1585 1585 1585 1585 1585 1586 1586 1586 1587 1587 1588 1588 1589 1590 1590 1591 1591 1592 1593 1594 1594
1557 1559 1561 1562 1564 1566 1567 1569 1571 1572 1574 1575 1577 1578 1579 1579 1580 1580 1581 1582 1583 1584 1584 1584 1585 1585 1585 1584 1585 1585 1585 1586 1586 1586 1587 1587 1588 1588 1589 1590 1590 1591 1592
1555 1557 1559 1561 1563 1564 1566 1568 1569 1572 1573 1574 1576 1577 1578 1580 1579 1580 1580 1581 1582 1583 1583 1583 1583 1583 1584 1584 1583 1584 1584 1584 1584 1584 1584 1585 1585 1586 1586 1587 1587 1588 1589
1553 1555 1557 1560 1561 1563 1565 1566 1568 1570 1572 1573 1574 1576 1577 1576 1578 1579 1579 1580 1581 1581 1582 1582 1582 1582 1583 1583 1583 1582 1582 1582 1582 1582 1582 1583 1583 1583 1583 1584 1584 1585 1585
1551 1553 1555 1557 1559 1562 1563 1565 1566 1568 1569 1572 1573 1574 1575 1576 1577 1578 1579 1579 1579 1580 1581 1582 1582 1582 1582 1582 1581 1580 1580 1580 1580 1580 1580 1580 1580 1580 1580 1580 1581 1581 1581
1548 1551 1553 1555 1557 1560 1561 1563 1564 1566 1568 1570 1572 1573 1574 1575 1576 1577 1577 1579 1579 1579 1580 1580 1581 1581 1581 1581 1580 1579 1579 1579 1579 1578 1578 1578 1577 1577 1577 1577 1577 1577 1577
1546 1549 1551 1553 1556 1558 1559 1561 1563 1565 1567 1568 1570 1572 1573 1574 1575 1576 1576 1577 1578 1578 1578 1579 1579 1580 1580 1580 1579 1578 1577 1577 1577 1576 1576 1575 1575 1574 1574 1574 1573 1573 1573
1544 1546 1549 1551 1554 1556 1558 1559 1561 1563 1565 1566 1568 1570 1571 1572 1573 1574 1575 1575 1576 1577 1577 1577 1578 1578 1578 1578 1577 1576 1575 1575 1575 1574 1573 1573 1572 1571 1571 1570 1570 1570 1569
1542 1544 1547 1549 1552 1554 1556 1558 1560 1562 1563 1565 1566 1567 1569 1570 1571 1573 1574 1574 1575 1575 1576 1576 1576 1576 1576 1576 1575 1574 1574 1573 1572 1572 1571 1570 1569 1569 1568 1567 1566 1566 1565
1540 1542 1545 1548 1550 1552 1554 1556 1559 1560 1561 1563 1565 1565 1567 1568 1569 1570 1572 1573 1574 1573 1573 1574 1575 1574 1573 1573 1572 1572 1572 1571 1570 1569 1568 1567 1567 1566 1565 1564 1563 1562 1562
1537 1540 1543 1546 1548 1550 1553 1555 1557 1558 1560 1561 1562 1564 1565 1567 1568 1568 1569 1570 1571 1572 1572 1572 1572 1573 1571 1572 1570 1569 1569 1568 1567 1566 1565 1564 1563 1562 1561 1560 1559 1558 1557
1535 1538 1541 1544 1546 1548 1551 1553 1556 1556 1558 1560 1561 1562 1563 1564 1566 1567 1568 1568 1569 1570 1570 1571 1570 1570 1568 1568 1568 1567 1566 1565 1565 1562 1561 1560 1559 1558 1557 1556 1555 1554 1553
1533 1536 1539 1542 1544 1546 1548 1551 1553 1555 1556 1558 1559 1560 1561 1562 1563 1565 1566 1567 1567 1567 1568 1568 1568 1568 1566 1565 1564 1563 1563 1563 1562 1560 1557 1556 1555 1553 1552 1551 1550 1549 1547
1531 1534 1537 1539 1542 1544 1546 1548 1551 1553 1554 1556 1557 1558 1559 1560 1561 1562 1563 1564 1565 1565 1565 1565 1565 1565 1564 1563 1561 1560 1559 1557 1557 1556 1553 1551 1549 1548 1547 1545 1544 1543 1542
1528 1531 1534 1537 1539 1541 1544 1546 1548 1550 1551 1553 1554 1555 1557 1558 1559 1559 1560 1560 1561 1562 1562 1562 1562 1561 1560 1559 1558 1557 1556 1555 1553 1552 1550 1548 1545 1543 1541 1539 1538 1537 1536
1525 1528 1531 1533 1536 1538 1541 1543 1545 1547 1548 1550 1551 1552 1553 1554 1555 1556 1558 1558 1558 1558 1559 1559 1558 1558 1557 1556 1556 1554 1552 1551 1549 1547 1545 1543 1542 1539 1537 1534 1532 1531 1529
1522 1525 1527 1530 1533 1536 1537 1539 1541 1544 1545 1546 1547 1549 1550 1550 1551 1552 1553 1553 1554 1554 1555 1555 1554 1554 1553 1553 1551 1550 1548 1546 1544 1544 1541 1538 1537 1534 1532 1530 1528 1525 1523
1518 1521 1524 1526 1529 1531 1533 1535 1537 1539 1541 1543 1544 1545 1546 1548 1547 1548 1548 1548 1548 1549 1549 1549 1549 1548 1548 1548 1546 1544 1543 1541 1538 1537 1535 1531 1530 1528 1526 1524 1521 1518 1516
1513 1516 1519 1522 1524 1526 1528 1531 1533 1535 1537 1538 1539 1540 1541 1543 1543 1544 1544 1544 1544 1544 1543 1543 1542 1542 1542 1541 1540 1538 1537 1534 1532 1530 1529 1526 1523 1521 1519 1517 1514 1511 1508
1509 1512 1514 1517 1519 1521 1523 1526 1528 1530 1531 1533 1534 1535 1536 1537 1538 1538 1539 1539 1539 1539 1538 1537 1537 1536 1535 1534 1533 1532 1530 1529 1527 1525 1524 1521 1517 1515 1512 1509 1507 1504 1501
1505 1507 1510 1512 1514 1516 1518 1520 1522 1525 1526 1528 1529 1530 1530 1532 1532 1532 1533 1533 1533 1533 1533 1532 1530 1529 1529 1527 1527 1525 1524 1523 1520 1518 1517 1514 1511 1509 1505 1503 1501 1498 1495